Year,Month,Day,Hour,Minute,Value (Times are PST for temperature in C)
2003,03,09,00,00,1.50
2003,03,09,00,01,1.50
2003,03,09,00,02,1.50
2003,03,09,00,03,1.50
2003,03,09,00,04,1.50
2003,03,09,00,05,1.50
2003,03,09,00,06,1.50
2003,03,09,00,07,1.60
2003,03,09,00,08,1.60
2003,03,09,00,09,1.60
2003,03,09,00,10,1.60
2003,03,09,00,11,1.60
2003,03,09,00,12,1.60
2003,03,09,00,13,1.60
2003,03,09,00,14,1.60
2003,03,09,00,15,1.60
2003,03,09,00,16,1.60
2003,03,09,00,17,1.70
2003,03,09,00,18,1.70
2003,03,09,00,19,1.70
2003,03,09,00,20,1.70
2003,03,09,00,21,1.70
2003,03,09,00,22,1.70
2003,03,09,00,23,1.70
2003,03,09,00,24,1.70
2003,03,09,00,25,1.70
2003,03,09,00,26,1.70
2003,03,09,00,27,1.70
2003,03,09,00,28,1.70
2003,03,09,00,29,1.70
2003,03,09,00,30,1.70
2003,03,09,00,31,1.70
2003,03,09,00,32,1.70
2003,03,09,00,33,1.70
2003,03,09,00,34,1.70
2003,03,09,00,35,1.70
2003,03,09,00,36,1.70
2003,03,09,00,37,1.70
2003,03,09,00,38,1.70
2003,03,09,00,39,1.70
2003,03,09,00,40,1.70
2003,03,09,00,41,1.70
2003,03,09,00,42,1.70
2003,03,09,00,43,1.70
2003,03,09,00,44,1.70
2003,03,09,00,45,1.70
2003,03,09,00,46,1.70
2003,03,09,00,47,1.70
2003,03,09,00,48,1.70
2003,03,09,00,49,1.70
2003,03,09,00,50,1.70
2003,03,09,00,51,1.70
2003,03,09,00,52,1.70
2003,03,09,00,53,1.70
2003,03,09,00,54,1.70
2003,03,09,00,55,1.70
2003,03,09,00,56,1.70
2003,03,09,00,57,1.70
2003,03,09,00,58,1.80
2003,03,09,00,59,1.80
2003,03,09,01,00,1.80
2003,03,09,01,01,1.80
2003,03,09,01,02,1.80
2003,03,09,01,03,1.80
2003,03,09,01,04,1.80
2003,03,09,01,05,1.80
2003,03,09,01,06,1.80
2003,03,09,01,07,1.80
2003,03,09,01,08,1.80
2003,03,09,01,09,1.80
2003,03,09,01,10,1.80
2003,03,09,01,11,1.80
2003,03,09,01,12,1.80
2003,03,09,01,13,1.80
2003,03,09,01,14,1.80
2003,03,09,01,15,1.80
2003,03,09,01,16,1.80
2003,03,09,01,17,1.80
2003,03,09,01,18,1.80
2003,03,09,01,19,1.80
2003,03,09,01,20,1.80
2003,03,09,01,21,1.80
2003,03,09,01,22,1.80
2003,03,09,01,23,1.80
2003,03,09,01,24,1.80
2003,03,09,01,25,1.90
2003,03,09,01,26,1.90
2003,03,09,01,27,1.90
2003,03,09,01,28,1.90
2003,03,09,01,29,1.90
2003,03,09,01,30,1.90
2003,03,09,01,31,1.90
2003,03,09,01,32,1.90
2003,03,09,01,33,1.90
2003,03,09,01,34,1.90
2003,03,09,01,35,1.90
2003,03,09,01,36,1.90
2003,03,09,01,37,1.90
2003,03,09,01,38,1.90
2003,03,09,01,39,1.90
2003,03,09,01,40,1.90
2003,03,09,01,41,1.90
2003,03,09,01,42,2.00
2003,03,09,01,43,2.00
2003,03,09,01,44,2.00
2003,03,09,01,45,2.00
2003,03,09,01,46,2.00
2003,03,09,01,47,2.00
2003,03,09,01,48,2.00
2003,03,09,01,49,2.00
2003,03,09,01,50,2.00
2003,03,09,01,51,2.00
2003,03,09,01,52,2.00
2003,03,09,01,53,2.00
2003,03,09,01,54,2.10
2003,03,09,01,55,2.10
2003,03,09,01,56,2.10
2003,03,09,01,57,2.10
2003,03,09,01,58,2.10
2003,03,09,01,59,2.10
2003,03,09,02,00,2.10
2003,03,09,02,01,2.10
2003,03,09,02,02,2.10
2003,03,09,02,03,2.10
2003,03,09,02,04,2.10
2003,03,09,02,05,2.20
2003,03,09,02,06,2.20
2003,03,09,02,07,2.20
2003,03,09,02,08,2.20
2003,03,09,02,09,2.20
2003,03,09,02,10,2.20
2003,03,09,02,11,2.20
2003,03,09,02,12,2.20
2003,03,09,02,13,2.20
2003,03,09,02,14,2.20
2003,03,09,02,15,2.20
2003,03,09,02,16,2.20
2003,03,09,02,17,2.20
2003,03,09,02,18,2.20
2003,03,09,02,19,2.20
2003,03,09,02,20,2.20
2003,03,09,02,21,2.20
2003,03,09,02,22,2.20
2003,03,09,02,23,2.20
2003,03,09,02,24,2.20
2003,03,09,02,25,2.20
2003,03,09,02,26,2.20
2003,03,09,02,27,2.20
2003,03,09,02,28,2.20
2003,03,09,02,29,2.20
2003,03,09,02,30,2.20
2003,03,09,02,31,2.20
2003,03,09,02,32,2.20
2003,03,09,02,33,2.20
2003,03,09,02,34,2.20
2003,03,09,02,35,2.20
2003,03,09,02,36,2.20
2003,03,09,02,37,2.20
2003,03,09,02,38,2.20
2003,03,09,02,39,2.20
2003,03,09,02,40,2.20
2003,03,09,02,41,2.20
2003,03,09,02,42,2.20
2003,03,09,02,43,2.20
2003,03,09,02,44,2.20
2003,03,09,02,45,2.20
2003,03,09,02,46,2.20
2003,03,09,02,47,2.20
2003,03,09,02,48,2.20
2003,03,09,02,49,2.20
2003,03,09,02,50,2.20
2003,03,09,02,51,2.20
2003,03,09,02,52,2.20
2003,03,09,02,53,2.20
2003,03,09,02,54,2.20
2003,03,09,02,55,2.20
2003,03,09,02,56,2.20
2003,03,09,02,57,2.20
2003,03,09,02,58,2.10
2003,03,09,02,59,2.10
2003,03,09,03,00,2.10
2003,03,09,03,01,2.10
2003,03,09,03,02,2.10
2003,03,09,03,03,2.10
2003,03,09,03,04,2.10
2003,03,09,03,05,2.10
2003,03,09,03,06,2.20
2003,03,09,03,07,2.20
2003,03,09,03,08,2.20
2003,03,09,03,09,2.20
2003,03,09,03,10,2.20
2003,03,09,03,11,2.20
2003,03,09,03,12,2.20
2003,03,09,03,13,2.20
2003,03,09,03,14,2.20
2003,03,09,03,15,2.20
2003,03,09,03,16,2.20
2003,03,09,03,17,2.20
2003,03,09,03,18,2.20
2003,03,09,03,19,2.20
2003,03,09,03,20,2.30
2003,03,09,03,21,2.30
2003,03,09,03,22,2.30
2003,03,09,03,23,2.30
2003,03,09,03,24,2.30
2003,03,09,03,25,2.30
2003,03,09,03,26,2.40
2003,03,09,03,27,2.40
2003,03,09,03,28,2.40
2003,03,09,03,29,2.40
2003,03,09,03,30,2.40
2003,03,09,03,31,2.40
2003,03,09,03,32,2.40
2003,03,09,03,33,2.40
2003,03,09,03,34,2.40
2003,03,09,03,35,2.40
2003,03,09,03,36,2.50
2003,03,09,03,37,2.50
2003,03,09,03,38,2.50
2003,03,09,03,39,2.50
2003,03,09,03,40,2.50
2003,03,09,03,41,2.50
2003,03,09,03,42,2.50
2003,03,09,03,43,2.50
2003,03,09,03,44,2.60
2003,03,09,03,45,2.60
2003,03,09,03,46,2.60
2003,03,09,03,47,2.60
2003,03,09,03,48,2.60
2003,03,09,03,49,2.60
2003,03,09,03,50,2.60
2003,03,09,03,51,2.60
2003,03,09,03,52,2.60
2003,03,09,03,53,2.60
2003,03,09,03,54,2.60
2003,03,09,03,55,2.60
2003,03,09,03,56,2.60
2003,03,09,03,57,2.60
2003,03,09,03,58,2.60
2003,03,09,03,59,2.60
2003,03,09,04,00,2.70
2003,03,09,04,01,2.70
2003,03,09,04,02,2.70
2003,03,09,04,03,2.70
2003,03,09,04,04,2.70
2003,03,09,04,05,2.70
2003,03,09,04,06,2.70
2003,03,09,04,07,2.70
2003,03,09,04,08,2.60
2003,03,09,04,09,2.60
2003,03,09,04,10,2.60
2003,03,09,04,11,2.60
2003,03,09,04,12,2.60
2003,03,09,04,13,2.60
2003,03,09,04,14,2.60
2003,03,09,04,15,2.60
2003,03,09,04,16,2.60
2003,03,09,04,17,2.60
2003,03,09,04,18,2.60
2003,03,09,04,19,2.70
2003,03,09,04,20,2.70
2003,03,09,04,21,2.70
2003,03,09,04,22,2.70
2003,03,09,04,23,2.70
2003,03,09,04,24,2.70
2003,03,09,04,25,2.70
2003,03,09,04,26,2.70
2003,03,09,04,27,2.70
2003,03,09,04,28,2.70
2003,03,09,04,29,2.70
2003,03,09,04,30,2.70
2003,03,09,04,31,2.70
2003,03,09,04,32,2.70
2003,03,09,04,33,2.70
2003,03,09,04,34,2.70
2003,03,09,04,35,2.70
2003,03,09,04,36,2.70
2003,03,09,04,37,2.70
2003,03,09,04,38,2.70
2003,03,09,04,39,2.70
2003,03,09,04,40,2.70
2003,03,09,04,41,2.70
2003,03,09,04,42,2.60
2003,03,09,04,43,2.50
2003,03,09,04,44,2.40
2003,03,09,04,45,2.30
2003,03,09,04,46,2.20
2003,03,09,04,47,2.10
2003,03,09,04,48,2.10
2003,03,09,04,49,2.00
2003,03,09,04,50,2.00
2003,03,09,04,51,2.00
2003,03,09,04,52,1.90
2003,03,09,04,53,1.90
2003,03,09,04,54,1.80
2003,03,09,04,55,1.70
2003,03,09,04,56,1.70
2003,03,09,04,57,1.60
2003,03,09,04,58,1.60
2003,03,09,04,59,1.60
2003,03,09,05,00,1.60
2003,03,09,05,01,1.60
2003,03,09,05,02,1.60
2003,03,09,05,03,1.70
2003,03,09,05,04,1.70
2003,03,09,05,05,1.70
2003,03,09,05,06,1.70
2003,03,09,05,07,1.70
2003,03,09,05,08,1.70
2003,03,09,05,09,1.60
2003,03,09,05,10,1.60
2003,03,09,05,11,1.60
2003,03,09,05,12,1.60
2003,03,09,05,13,1.60
2003,03,09,05,14,1.60
2003,03,09,05,15,1.60
2003,03,09,05,16,1.60
2003,03,09,05,17,1.60
2003,03,09,05,18,1.60
2003,03,09,05,19,1.60
2003,03,09,05,20,1.60
2003,03,09,05,21,1.60
2003,03,09,05,22,1.60
2003,03,09,05,23,1.60
2003,03,09,05,24,1.60
2003,03,09,05,25,1.60
2003,03,09,05,26,1.60
2003,03,09,05,27,1.60
2003,03,09,05,28,1.60
2003,03,09,05,29,1.70
2003,03,09,05,30,1.70
2003,03,09,05,31,1.70
2003,03,09,05,32,1.70
2003,03,09,05,33,1.70
2003,03,09,05,34,1.70
2003,03,09,05,35,1.70
2003,03,09,05,36,1.70
2003,03,09,05,37,1.70
2003,03,09,05,38,1.70
2003,03,09,05,39,1.70
2003,03,09,05,40,1.70
2003,03,09,05,41,1.70
2003,03,09,05,42,1.80
2003,03,09,05,43,1.80
2003,03,09,05,44,1.80
2003,03,09,05,45,1.80
2003,03,09,05,46,1.80
2003,03,09,05,47,1.90
2003,03,09,05,48,1.90
2003,03,09,05,49,1.80
2003,03,09,05,50,1.80
2003,03,09,05,51,1.80
2003,03,09,05,52,1.80
2003,03,09,05,53,1.90
2003,03,09,05,54,1.90
2003,03,09,05,55,2.00
2003,03,09,05,56,2.10
2003,03,09,05,57,2.10
2003,03,09,05,58,2.20
2003,03,09,05,59,2.20
2003,03,09,06,00,2.20
2003,03,09,06,01,2.20
2003,03,09,06,02,2.20
2003,03,09,06,03,2.30
2003,03,09,06,04,2.40
2003,03,09,06,05,2.50
2003,03,09,06,06,2.70
2003,03,09,06,07,2.70
2003,03,09,06,08,2.70
2003,03,09,06,09,2.60
2003,03,09,06,10,2.60
2003,03,09,06,11,2.60
2003,03,09,06,12,2.60
2003,03,09,06,13,2.60
2003,03,09,06,14,2.60
2003,03,09,06,15,2.60
2003,03,09,06,16,2.70
2003,03,09,06,17,2.70
2003,03,09,06,18,2.70
2003,03,09,06,19,2.70
2003,03,09,06,20,2.70
2003,03,09,06,21,2.70
2003,03,09,06,22,2.70
2003,03,09,06,23,2.80
2003,03,09,06,24,2.80
2003,03,09,06,25,2.80
2003,03,09,06,26,2.80
2003,03,09,06,27,2.80
2003,03,09,06,28,2.90
2003,03,09,06,29,2.90
2003,03,09,06,30,2.90
2003,03,09,06,31,2.90
2003,03,09,06,32,2.90
2003,03,09,06,33,2.90
2003,03,09,06,34,2.90
2003,03,09,06,35,2.90
2003,03,09,06,36,2.90
2003,03,09,06,37,2.90
2003,03,09,06,38,2.90
2003,03,09,06,39,2.90
2003,03,09,06,40,2.90
2003,03,09,06,41,2.90
2003,03,09,06,42,2.90
2003,03,09,06,43,2.90
2003,03,09,06,44,2.90
2003,03,09,06,45,2.90
2003,03,09,06,46,2.90
2003,03,09,06,47,2.90
2003,03,09,06,48,2.90
2003,03,09,06,49,2.90
2003,03,09,06,50,2.90
2003,03,09,06,51,2.90
2003,03,09,06,52,2.90
2003,03,09,06,53,2.90
2003,03,09,06,54,2.80
2003,03,09,06,55,2.80
2003,03,09,06,56,2.80
2003,03,09,06,57,2.70
2003,03,09,06,58,2.70
2003,03,09,06,59,2.70
2003,03,09,07,00,2.60
2003,03,09,07,01,2.60
2003,03,09,07,02,2.50
2003,03,09,07,03,2.50
2003,03,09,07,04,2.50
2003,03,09,07,05,2.50
2003,03,09,07,06,2.50
2003,03,09,07,07,2.50
2003,03,09,07,08,2.50
2003,03,09,07,09,2.50
2003,03,09,07,10,2.50
2003,03,09,07,11,2.50
2003,03,09,07,12,2.50
2003,03,09,07,13,2.50
2003,03,09,07,14,2.50
2003,03,09,07,15,2.50
2003,03,09,07,16,2.50
2003,03,09,07,17,2.50
2003,03,09,07,18,2.50
2003,03,09,07,19,2.50
2003,03,09,07,20,2.50
2003,03,09,07,21,2.50
2003,03,09,07,22,2.50
2003,03,09,07,23,2.40
2003,03,09,07,24,2.40
2003,03,09,07,25,2.40
2003,03,09,07,26,2.40
2003,03,09,07,27,2.40
2003,03,09,07,28,2.40
2003,03,09,07,29,2.50
2003,03,09,07,30,2.50
2003,03,09,07,31,2.50
2003,03,09,07,32,2.50
2003,03,09,07,33,2.50
2003,03,09,07,34,2.50
2003,03,09,07,35,2.50
2003,03,09,07,36,2.50
2003,03,09,07,37,2.50
2003,03,09,07,38,2.50
2003,03,09,07,39,2.50
2003,03,09,07,40,2.50
2003,03,09,07,41,2.50
2003,03,09,07,42,2.50
2003,03,09,07,43,2.50
2003,03,09,07,44,2.50
2003,03,09,07,45,2.50
2003,03,09,07,46,2.50
2003,03,09,07,47,2.50
2003,03,09,07,48,2.50
2003,03,09,07,49,2.50
2003,03,09,07,50,2.50
2003,03,09,07,51,2.50
2003,03,09,07,52,2.50
2003,03,09,07,53,2.60
2003,03,09,07,54,2.60
2003,03,09,07,55,2.50
2003,03,09,07,56,2.50
2003,03,09,07,57,2.50
2003,03,09,07,58,2.60
2003,03,09,07,59,2.60
2003,03,09,08,00,2.60
2003,03,09,08,01,2.60
2003,03,09,08,02,2.60
2003,03,09,08,03,2.60
2003,03,09,08,04,2.60
2003,03,09,08,05,2.60
2003,03,09,08,06,2.60
2003,03,09,08,07,2.60
2003,03,09,08,08,2.60
2003,03,09,08,09,2.60
2003,03,09,08,10,2.60
2003,03,09,08,11,2.60
2003,03,09,08,12,2.60
2003,03,09,08,13,2.60
2003,03,09,08,14,2.60
2003,03,09,08,15,2.60
2003,03,09,08,16,2.50
2003,03,09,08,17,2.50
2003,03,09,08,18,2.50
2003,03,09,08,19,2.50
2003,03,09,08,20,2.50
2003,03,09,08,21,2.50
2003,03,09,08,22,2.50
2003,03,09,08,23,2.60
2003,03,09,08,24,2.50
2003,03,09,08,25,2.50
2003,03,09,08,26,2.60
2003,03,09,08,27,2.50
2003,03,09,08,28,2.50
2003,03,09,08,29,2.50
2003,03,09,08,30,2.50
2003,03,09,08,31,2.50
2003,03,09,08,32,2.50
2003,03,09,08,33,2.50
2003,03,09,08,34,2.50
2003,03,09,08,35,2.50
2003,03,09,08,36,2.50
2003,03,09,08,37,2.50
2003,03,09,08,38,2.50
2003,03,09,08,39,2.40
2003,03,09,08,40,2.40
2003,03,09,08,41,2.40
2003,03,09,08,42,2.50
2003,03,09,08,43,2.50
2003,03,09,08,44,2.50
2003,03,09,08,45,2.50
2003,03,09,08,46,2.50
2003,03,09,08,47,2.50
2003,03,09,08,48,2.50
2003,03,09,08,49,2.50
2003,03,09,08,50,2.50
2003,03,09,08,51,2.50
2003,03,09,08,52,2.60
2003,03,09,08,53,2.60
2003,03,09,08,54,2.60
2003,03,09,08,55,2.50
2003,03,09,08,56,2.50
2003,03,09,08,57,2.60
2003,03,09,08,58,2.60
2003,03,09,08,59,2.60
2003,03,09,09,00,2.70
2003,03,09,09,01,2.70
2003,03,09,09,02,2.70
2003,03,09,09,03,2.70
2003,03,09,09,04,2.80
2003,03,09,09,05,2.80
2003,03,09,09,06,2.80
2003,03,09,09,07,2.80
2003,03,09,09,08,2.90
2003,03,09,09,09,2.90
2003,03,09,09,10,2.90
2003,03,09,09,11,2.90
2003,03,09,09,12,2.90
2003,03,09,09,13,2.90
2003,03,09,09,14,2.90
2003,03,09,09,15,2.90
2003,03,09,09,16,2.90
2003,03,09,09,17,2.90
2003,03,09,09,18,2.90
2003,03,09,09,19,2.90
2003,03,09,09,20,2.90
2003,03,09,09,21,2.90
2003,03,09,09,22,2.90
2003,03,09,09,23,3.00
2003,03,09,09,24,3.10
2003,03,09,09,25,3.20
2003,03,09,09,26,3.30
2003,03,09,09,27,3.30
2003,03,09,09,28,3.30
2003,03,09,09,29,3.30
2003,03,09,09,30,3.20
2003,03,09,09,31,3.20
2003,03,09,09,32,3.30
2003,03,09,09,33,3.20
2003,03,09,09,34,3.20
2003,03,09,09,35,3.20
2003,03,09,09,36,3.20
2003,03,09,09,37,3.20
2003,03,09,09,38,3.20
2003,03,09,09,39,3.20
2003,03,09,09,40,3.20
2003,03,09,09,41,3.30
2003,03,09,09,42,3.30
2003,03,09,09,43,3.30
2003,03,09,09,44,3.40
2003,03,09,09,45,3.40
2003,03,09,09,46,3.40
2003,03,09,09,47,3.50
2003,03,09,09,48,3.50
2003,03,09,09,49,3.50
2003,03,09,09,50,3.60
2003,03,09,09,51,3.60
2003,03,09,09,52,3.60
2003,03,09,09,53,3.60
2003,03,09,09,54,3.60
2003,03,09,09,55,3.50
2003,03,09,09,56,3.50
2003,03,09,09,57,3.50
2003,03,09,09,58,3.60
2003,03,09,09,59,3.60
2003,03,09,10,00,3.60
2003,03,09,10,01,3.70
2003,03,09,10,02,3.70
2003,03,09,10,03,3.70
2003,03,09,10,04,3.80
2003,03,09,10,05,3.80
2003,03,09,10,06,3.80
2003,03,09,10,07,3.80
2003,03,09,10,08,3.90
2003,03,09,10,09,4.00
2003,03,09,10,10,4.00
2003,03,09,10,11,4.00
2003,03,09,10,12,4.00
2003,03,09,10,13,4.00
2003,03,09,10,14,4.00
2003,03,09,10,15,4.00
2003,03,09,10,16,3.90
2003,03,09,10,17,3.90
2003,03,09,10,18,3.90
2003,03,09,10,19,3.90
2003,03,09,10,20,3.90
2003,03,09,10,21,3.90
2003,03,09,10,22,3.90
2003,03,09,10,23,3.90
2003,03,09,10,24,3.80
2003,03,09,10,25,3.80
2003,03,09,10,26,3.80
2003,03,09,10,27,3.80
2003,03,09,10,28,3.80
2003,03,09,10,29,3.80
2003,03,09,10,30,3.80
2003,03,09,10,31,3.80
2003,03,09,10,32,3.80
2003,03,09,10,33,3.90
2003,03,09,10,34,3.90
2003,03,09,10,35,3.90
2003,03,09,10,36,3.90
2003,03,09,10,37,3.80
2003,03,09,10,38,3.80
2003,03,09,10,39,3.80
2003,03,09,10,40,3.80
2003,03,09,10,41,3.90
2003,03,09,10,42,3.90
2003,03,09,10,43,4.00
2003,03,09,10,44,4.00
2003,03,09,10,45,4.00
2003,03,09,10,46,4.10
2003,03,09,10,47,4.10
2003,03,09,10,48,4.20
2003,03,09,10,49,4.20
2003,03,09,10,50,4.20
2003,03,09,10,51,4.20
2003,03,09,10,52,4.20
2003,03,09,10,53,4.20
2003,03,09,10,54,4.30
2003,03,09,10,55,4.30
2003,03,09,10,56,4.30
2003,03,09,10,57,4.30
2003,03,09,10,58,4.40
2003,03,09,10,59,4.40
2003,03,09,11,00,4.50
2003,03,09,11,01,4.50
2003,03,09,11,02,4.40
2003,03,09,11,03,4.40
2003,03,09,11,04,4.40
2003,03,09,11,05,4.40
2003,03,09,11,06,4.40
2003,03,09,11,07,4.40
2003,03,09,11,08,4.40
2003,03,09,11,09,4.40
2003,03,09,11,10,4.40
2003,03,09,11,11,4.50
2003,03,09,11,12,4.50
2003,03,09,11,13,4.50
2003,03,09,11,14,4.60
2003,03,09,11,15,4.60
2003,03,09,11,16,4.60
2003,03,09,11,17,4.60
2003,03,09,11,18,4.60
2003,03,09,11,19,4.70
2003,03,09,11,20,4.70
2003,03,09,11,21,4.70
2003,03,09,11,22,4.70
2003,03,09,11,23,4.70
2003,03,09,11,24,4.80
2003,03,09,11,25,4.80
2003,03,09,11,26,4.80
2003,03,09,11,27,4.80
2003,03,09,11,28,4.80
2003,03,09,11,29,4.80
2003,03,09,11,30,4.90
2003,03,09,11,31,5.00
2003,03,09,11,32,5.10
2003,03,09,11,33,5.10
2003,03,09,11,34,5.10
2003,03,09,11,35,5.10
2003,03,09,11,36,5.10
2003,03,09,11,37,5.20
2003,03,09,11,38,5.20
2003,03,09,11,39,5.20
2003,03,09,11,40,5.10
2003,03,09,11,41,5.10
2003,03,09,11,42,5.10
2003,03,09,11,43,5.10
2003,03,09,11,44,5.20
2003,03,09,11,45,5.20
2003,03,09,11,46,5.20
2003,03,09,11,47,5.20
2003,03,09,11,48,5.20
2003,03,09,11,49,5.20
2003,03,09,11,50,5.30
2003,03,09,11,51,5.30
2003,03,09,11,52,5.40
2003,03,09,11,53,5.40
2003,03,09,11,54,5.40
2003,03,09,11,55,5.40
2003,03,09,11,56,5.30
2003,03,09,11,57,5.30
2003,03,09,11,58,5.30
2003,03,09,11,59,5.30
2003,03,09,12,00,5.40
2003,03,09,12,01,5.40
2003,03,09,12,02,5.40
2003,03,09,12,03,5.50
2003,03,09,12,04,5.60
2003,03,09,12,05,5.60
2003,03,09,12,06,5.70
2003,03,09,12,07,5.70
2003,03,09,12,08,5.70
2003,03,09,12,09,5.70
2003,03,09,12,10,5.70
2003,03,09,12,11,5.70
2003,03,09,12,12,5.70
2003,03,09,12,13,5.70
2003,03,09,12,14,5.70
2003,03,09,12,15,5.80
2003,03,09,12,16,5.80
2003,03,09,12,17,5.80
2003,03,09,12,18,5.80
2003,03,09,12,19,5.90
2003,03,09,12,20,5.90
2003,03,09,12,21,5.90
2003,03,09,12,22,6.00
2003,03,09,12,23,6.00
2003,03,09,12,24,6.10
2003,03,09,12,25,6.10
2003,03,09,12,26,6.20
2003,03,09,12,27,6.20
2003,03,09,12,28,6.20
2003,03,09,12,29,6.20
2003,03,09,12,30,6.20
2003,03,09,12,31,6.30
2003,03,09,12,32,6.40
2003,03,09,12,33,6.40
2003,03,09,12,34,6.50
2003,03,09,12,35,6.60
2003,03,09,12,36,6.60
2003,03,09,12,37,6.70
2003,03,09,12,38,6.80
2003,03,09,12,39,6.80
2003,03,09,12,40,6.80
2003,03,09,12,41,6.80
2003,03,09,12,42,6.80
2003,03,09,12,43,6.80
2003,03,09,12,44,7.10
2003,03,09,12,45,7.10
2003,03,09,12,46,7.20
2003,03,09,12,47,7.30
2003,03,09,12,48,7.30
2003,03,09,12,49,7.30
2003,03,09,12,50,7.30
2003,03,09,12,51,7.20
2003,03,09,12,52,7.20
2003,03,09,12,53,7.20
2003,03,09,12,54,7.10
2003,03,09,12,55,7.10
2003,03,09,12,56,7.00
2003,03,09,12,57,7.00
2003,03,09,12,58,6.90
2003,03,09,12,59,6.80
2003,03,09,13,00,6.80
2003,03,09,13,01,6.80
2003,03,09,13,02,6.90
2003,03,09,13,03,7.00
2003,03,09,13,04,7.00
2003,03,09,13,05,7.10
2003,03,09,13,06,7.20
2003,03,09,13,07,7.30
2003,03,09,13,08,7.30
2003,03,09,13,09,7.30
2003,03,09,13,10,7.30
2003,03,09,13,11,7.30
2003,03,09,13,12,7.40
2003,03,09,13,13,7.40
2003,03,09,13,14,7.40
2003,03,09,13,15,7.40
2003,03,09,13,16,7.50
2003,03,09,13,17,7.50
2003,03,09,13,18,7.60
2003,03,09,13,19,7.60
2003,03,09,13,20,7.70
2003,03,09,13,21,7.60
2003,03,09,13,22,7.60
2003,03,09,13,23,7.60
2003,03,09,13,24,7.50
2003,03,09,13,25,7.50
2003,03,09,13,26,7.50
2003,03,09,13,27,7.40
2003,03,09,13,28,7.40
2003,03,09,13,29,7.50
2003,03,09,13,30,7.50
2003,03,09,13,31,7.60
2003,03,09,13,32,7.60
2003,03,09,13,33,7.50
2003,03,09,13,34,7.40
2003,03,09,13,35,7.40
2003,03,09,13,36,7.30
2003,03,09,13,37,7.20
2003,03,09,13,38,7.10
2003,03,09,13,39,7.10
2003,03,09,13,40,7.00
2003,03,09,13,41,7.00
2003,03,09,13,42,7.00
2003,03,09,13,43,7.10
2003,03,09,13,44,7.20
2003,03,09,13,45,7.30
2003,03,09,13,46,7.40
2003,03,09,13,47,7.40
2003,03,09,13,48,7.50
2003,03,09,13,49,7.60
2003,03,09,13,50,7.60
2003,03,09,13,51,7.60
2003,03,09,13,52,7.60
2003,03,09,13,53,7.60
2003,03,09,13,54,7.60
2003,03,09,13,55,7.60
2003,03,09,13,56,7.60
2003,03,09,13,57,7.60
2003,03,09,13,58,7.50
2003,03,09,13,59,7.40
2003,03,09,14,00,7.50
2003,03,09,14,01,7.50
2003,03,09,14,02,7.50
2003,03,09,14,03,7.50
2003,03,09,14,04,7.40
2003,03,09,14,05,7.40
2003,03,09,14,06,7.40
2003,03,09,14,07,7.50
2003,03,09,14,08,7.50
2003,03,09,14,09,7.50
2003,03,09,14,10,7.60
2003,03,09,14,11,7.60
2003,03,09,14,12,7.70
2003,03,09,14,13,7.70
2003,03,09,14,14,7.80
2003,03,09,14,15,7.80
2003,03,09,14,16,7.80
2003,03,09,14,17,7.80
2003,03,09,14,18,7.80
2003,03,09,14,19,7.80
2003,03,09,14,20,7.90
2003,03,09,14,21,7.90
2003,03,09,14,22,7.90
2003,03,09,14,23,8.00
2003,03,09,14,24,8.00
2003,03,09,14,25,8.00
2003,03,09,14,26,8.00
2003,03,09,14,27,7.90
2003,03,09,14,28,7.90
2003,03,09,14,29,7.90
2003,03,09,14,30,7.90
2003,03,09,14,31,8.00
2003,03,09,14,32,8.00
2003,03,09,14,33,8.00
2003,03,09,14,34,8.00
2003,03,09,14,35,8.10
2003,03,09,14,36,8.10
2003,03,09,14,37,8.10
2003,03,09,14,38,8.10
2003,03,09,14,39,8.10
2003,03,09,14,40,8.10
2003,03,09,14,41,8.10
2003,03,09,14,42,8.20
2003,03,09,14,43,8.20
2003,03,09,14,44,8.20
2003,03,09,14,45,8.20
2003,03,09,14,46,8.20
2003,03,09,14,47,8.20
2003,03,09,14,48,8.20
2003,03,09,14,49,8.20
2003,03,09,14,50,8.20
2003,03,09,14,51,8.30
2003,03,09,14,52,8.40
2003,03,09,14,53,8.40
2003,03,09,14,54,8.50
2003,03,09,14,55,8.60
2003,03,09,14,56,8.60
2003,03,09,14,57,8.60
2003,03,09,14,58,8.60
2003,03,09,14,59,8.70
2003,03,09,15,00,8.70
2003,03,09,15,01,8.70
2003,03,09,15,02,8.70
2003,03,09,15,03,8.70
2003,03,09,15,04,8.70
2003,03,09,15,05,8.70
2003,03,09,15,06,8.70
2003,03,09,15,07,8.80
2003,03,09,15,08,8.80
2003,03,09,15,09,8.80
2003,03,09,15,10,8.80
2003,03,09,15,11,8.80
2003,03,09,15,12,8.80
2003,03,09,15,13,8.90
2003,03,09,15,14,8.80
2003,03,09,15,15,8.80
2003,03,09,15,16,8.80
2003,03,09,15,17,8.80
2003,03,09,15,18,8.90
2003,03,09,15,19,8.80
2003,03,09,15,20,8.90
2003,03,09,15,21,8.90
2003,03,09,15,22,8.90
2003,03,09,15,23,8.90
2003,03,09,15,24,8.90
2003,03,09,15,25,9.00
2003,03,09,15,26,9.00
2003,03,09,15,27,8.90
2003,03,09,15,28,8.90
2003,03,09,15,29,9.00
2003,03,09,15,30,9.00
2003,03,09,15,31,9.10
2003,03,09,15,32,9.10
2003,03,09,15,33,9.20
2003,03,09,15,34,9.30
2003,03,09,15,35,9.30
2003,03,09,15,36,9.40
2003,03,09,15,37,9.50
2003,03,09,15,38,9.50
2003,03,09,15,39,9.60
2003,03,09,15,40,9.70
2003,03,09,15,41,9.70
2003,03,09,15,42,9.60
2003,03,09,15,43,9.60
2003,03,09,15,44,9.60
2003,03,09,15,45,9.70
2003,03,09,15,46,9.70
2003,03,09,15,47,9.70
2003,03,09,15,48,9.70
2003,03,09,15,49,9.70
2003,03,09,15,50,9.70
2003,03,09,15,51,9.80
2003,03,09,15,52,9.80
2003,03,09,15,53,9.80
2003,03,09,15,54,9.70
2003,03,09,15,55,9.70
2003,03,09,15,56,9.70
2003,03,09,15,57,9.70
2003,03,09,15,58,9.70
2003,03,09,15,59,9.70
2003,03,09,16,00,9.70
2003,03,09,16,01,9.70
2003,03,09,16,02,9.70
2003,03,09,16,03,9.70
2003,03,09,16,04,9.70
2003,03,09,16,05,9.70
2003,03,09,16,06,9.70
2003,03,09,16,07,9.70
2003,03,09,16,08,9.70
2003,03,09,16,09,9.70
2003,03,09,16,10,9.70
2003,03,09,16,11,9.70
2003,03,09,16,12,9.70
2003,03,09,16,13,9.70
2003,03,09,16,14,9.70
2003,03,09,16,15,9.70
2003,03,09,16,16,9.70
2003,03,09,16,17,9.70
2003,03,09,16,18,9.70
2003,03,09,16,19,9.70
2003,03,09,16,20,9.70
2003,03,09,16,21,9.60
2003,03,09,16,22,9.60
2003,03,09,16,23,9.50
2003,03,09,16,24,9.50
2003,03,09,16,25,9.40
2003,03,09,16,26,9.40
2003,03,09,16,27,9.40
2003,03,09,16,28,9.40
2003,03,09,16,29,9.30
2003,03,09,16,30,9.30
2003,03,09,16,31,9.30
2003,03,09,16,32,9.30
2003,03,09,16,33,9.30
2003,03,09,16,34,9.30
2003,03,09,16,35,9.30
2003,03,09,16,36,9.30
2003,03,09,16,37,9.30
2003,03,09,16,38,9.20
2003,03,09,16,39,9.20
2003,03,09,16,40,9.20
2003,03,09,16,41,9.30
2003,03,09,16,42,9.30
2003,03,09,16,43,9.30
2003,03,09,16,44,9.20
2003,03,09,16,45,9.20
2003,03,09,16,46,9.20
2003,03,09,16,47,9.20
2003,03,09,16,48,9.20
2003,03,09,16,49,9.10
2003,03,09,16,50,9.10
2003,03,09,16,51,9.10
2003,03,09,16,52,9.10
2003,03,09,16,53,9.20
2003,03,09,16,54,9.20
2003,03,09,16,55,9.10
2003,03,09,16,56,9.10
2003,03,09,16,57,9.00
2003,03,09,16,58,9.00
2003,03,09,16,59,9.00
2003,03,09,17,00,9.00
2003,03,09,17,01,9.00
2003,03,09,17,02,9.00
2003,03,09,17,03,9.00
2003,03,09,17,04,9.00
2003,03,09,17,05,9.00
2003,03,09,17,06,8.90
2003,03,09,17,07,8.90
2003,03,09,17,08,8.90
2003,03,09,17,09,8.90
2003,03,09,17,10,8.90
2003,03,09,17,11,8.80
2003,03,09,17,12,8.80
2003,03,09,17,13,8.80
2003,03,09,17,14,8.70
2003,03,09,17,15,8.70
2003,03,09,17,16,8.70
2003,03,09,17,17,8.70
2003,03,09,17,18,8.70
2003,03,09,17,19,8.70
2003,03,09,17,20,8.70
2003,03,09,17,21,8.70
2003,03,09,17,22,8.80
2003,03,09,17,23,8.80
2003,03,09,17,24,8.80
2003,03,09,17,25,8.70
2003,03,09,17,26,8.70
2003,03,09,17,27,8.70
2003,03,09,17,28,8.70
2003,03,09,17,29,8.70
2003,03,09,17,30,8.70
2003,03,09,17,31,8.70
2003,03,09,17,32,8.70
2003,03,09,17,33,8.80
2003,03,09,17,34,8.70
2003,03,09,17,35,8.70
2003,03,09,17,36,8.70
2003,03,09,17,37,8.70
2003,03,09,17,38,8.80
2003,03,09,17,39,8.80
2003,03,09,17,40,8.80
2003,03,09,17,41,8.80
2003,03,09,17,42,8.80
2003,03,09,17,43,8.80
2003,03,09,17,44,8.80
2003,03,09,17,45,8.80
2003,03,09,17,46,8.80
2003,03,09,17,47,8.80
2003,03,09,17,48,8.90
2003,03,09,17,49,8.90
2003,03,09,17,50,8.90
2003,03,09,17,51,8.90
2003,03,09,17,52,8.90
2003,03,09,17,53,8.90
2003,03,09,17,54,8.90
2003,03,09,17,55,8.90
2003,03,09,17,56,9.00
2003,03,09,17,57,9.00
2003,03,09,17,58,9.10
2003,03,09,17,59,9.10
2003,03,09,18,00,9.10
2003,03,09,18,01,9.00
2003,03,09,18,02,9.00
2003,03,09,18,03,9.00
2003,03,09,18,04,9.00
2003,03,09,18,05,9.00
2003,03,09,18,06,8.90